Flag for Canada Weather past 2 weeks in Prince Rupert, British Columbia, Canada

Now
63 °F

Sunny.


Feels Like: 63 °F
Forecast: 46 / 64 °F
Wind: 6 mph from West

Location: Prince Rupert

Current Time: Sep 4, 2015 at 2:33:01 PM

Latest Report: Sep 4, 2015 at 2:00 PM


Visibility: 9 mi

Pressure: 30.08 "Hg

Humidity: 49%

Dew point: 43 °F

Location of Prince RupertLocation

Historic Weather in Prince Rupert — Graph

°F

Prince Rupert temperature yesterday

Maximum temperature yesterday: 61 °F (at 6:00 PM)
Minimum temperature yesterday: 45 °F (at 3:00 AM)
Average temperature yesterday: 52 °F

Past Weeks' High & Low Weather Summary

 TemperatureHumidityPressure
High70 °F (Aug 26, 4:00 PM)100% (Aug 21, 12:00 AM)30.11 "Hg (Aug 21, 12:00 AM)
Low43 °F (Sep 4, 7:00 AM)53% (Aug 26, 4:00 PM)29.23 "Hg (Aug 29, 2:00 PM)
Average55 °F87%29.81 "Hg
* Reported Aug 20 1:00 PM — Sep 4 1:00 PM, Prince Rupert, Weather by CustomWeather, © 2015

Note: Actual official high and low records may vary slightly from our data, if they occured in-between our weather recording intervals... More about our weather records

Advertising

Prince Rupert weather history for previous 24 hours

 ConditionsComfort  
Time TempWeatherWind HumidityBarometerVisibility
1:00 PM
Fri, Sep 4
59 °FSunny.5 mph68%30.09 "Hg9 mi
12:00 PM57 °FSunny.3 mph72%30.10 "Hg9 mi
11:00 AM55 °FSunny.3 mph77%30.11 "Hg9 mi
10:00 AM54 °FSunny.No wind77%30.11 "Hg9 mi
9:00 AM50 °FSunny.2 mph88%30.11 "Hg9 mi
8:00 AM45 °FSunny.2 mph93%30.11 "Hg9 mi
7:00 AM43 °FClear.2 mph100%30.11 "Hg9 mi
6:00 AM46 °FClear.5 mph93%30.11 "Hg9 mi
5:00 AM46 °FClear.7 mph93%30.10 "Hg9 mi
4:00 AM46 °FClear.6 mph93%30.09 "Hg9 mi
3:00 AM48 °FClear.6 mph94%30.09 "Hg9 mi
2:00 AM48 °FClear.3 mph94%30.09 "Hg9 mi
1:00 AM48 °FClear.6 mph100%30.10 "Hg9 mi
12:00 AM50 °FClear.5 mph94%30.09 "Hg9 mi
11:00 PM
Thu, Sep 3
52 °FClear.3 mph94%30.08 "Hg9 mi
10:00 PM52 °FClear.2 mph88%30.08 "Hg9 mi
9:00 PM54 °FSunny.3 mph88%30.07 "Hg9 mi
8:00 PM55 °FSunny.No wind88%30.06 "Hg9 mi
7:00 PM57 °FScattered clouds.7 mph82%30.06 "Hg9 mi
6:00 PM61 °FSunny.7 mph68%30.04 "Hg9 mi
5:00 PM59 °FSunny.7 mph72%30.04 "Hg9 mi
4:00 PM59 °FSunny.6 mph77%30.05 "Hg9 mi
3:00 PM59 °FSunny.8 mph68%30.04 "Hg9 mi
2:00 PM59 °FSunny.6 mph68%30.04 "Hg9 mi
Weather by CustomWeather, © 2015

See weather overviewHow to use our weather pages